When you browse on this site, cookies collect data to enhance your experience and personalize the content and advertising you see.
Visit our Privacy Policy to learn more. By continuing to use the site, you agree to this use of cookies and data.
  • In Romania
  • List of Countries
  • For 7 days
  • Water Temperature
  • Satellite Maps
  • Weather Map
  • Weather Widgets
  • user-avatar
    Login

    Hourly Weather Veszprem

    Today, 23 January, Wednesday

    Time Temperature Precipitation Wind Pressure Humidity
    00:00 -5°C° 0 mm 2 mps 732 mmHg 81%
    01:00 -5°C° 0 mm 2 mps 732 mmHg 82%
    02:00 -5°C° 0.3 mm 2 mps 731 mmHg 85%
    03:00 -5°C° 0.3 mm 2 mps 731 mmHg 88%
    04:00 -5°C° 0.3 mm 2 mps 730 mmHg 91%
    05:00 -5°C° 0.5 mm 2 mps 730 mmHg 92%
    06:00 -5°C° 0.5 mm 2 mps 729 mmHg 93%
    07:00 -5°C° 0.5 mm 2 mps 729 mmHg 94%
    08:00 -4°C° 0.3 mm 2 mps 729 mmHg 93%
    09:00 -4°C° 0.3 mm 2 mps 729 mmHg 92%
    10:00 -4°C° 0.3 mm 2 mps 729 mmHg 91%
    11:00 -3°C° 0.1 mm 2 mps 729 mmHg 90%
    12:00 -3°C° 0.1 mm 2 mps 729 mmHg 90%
    13:00 -2°C° 0.1 mm 2 mps 728 mmHg 89%
    14:00 -2°C° 0 mm 2 mps 728 mmHg 91%
    15:00 -2°C° 0 mm 2 mps 728 mmHg 92%
    16:00 -2°C° 0 mm 2 mps 728 mmHg 93%
    17:00 -2°C° 0 mm 2 mps 728 mmHg 94%
    18:00 -3°C° 0 mm 2 mps 728 mmHg 95%
    19:00 -3°C° 0 mm 2 mps 728 mmHg 96%
    20:00 -3°C° 0 mm 2 mps 728 mmHg 96%
    21:00 -3°C° 0 mm 2 mps 728 mmHg 96%
    22:00 -3°C° 0 mm 2 mps 728 mmHg 95%
    23:00 -3°C° 0 mm 2 mps 728 mmHg 95%

    Tomorrow, 24 January, Thursday

    Time Temperature Precipitation Wind Pressure Humidity
    00:00 -3°C° 0 mm 2 mps 728 mmHg 95%
    01:00 -3°C° 0 mm 2 mps 729 mmHg 94%
    02:00 -4°C° 0 mm 2 mps 728 mmHg 95%
    03:00 -4°C° 0 mm 2 mps 728 mmHg 95%
    04:00 -4°C° 0 mm 2 mps 728 mmHg 96%
    05:00 -4°C° 0 mm 2 mps 728 mmHg 95%
    06:00 -4°C° 0 mm 2 mps 728 mmHg 94%
    07:00 -4°C° 0 mm 2 mps 729 mmHg 94%
    08:00 -4°C° 0 mm 3 mps 729 mmHg 90%
    09:00 -2°C° 0 mm 3 mps 729 mmHg 87%
    10:00 -2°C° 0 mm 3 mps 729 mmHg 84%
    11:00 -2°C° 0 mm 4 mps 729 mmHg 82%
    12:00 -2°C° 0 mm 5 mps 729 mmHg 80%
    13:00 -2°C° 0 mm 6 mps 728 mmHg 78%
    14:00 -3°C° 0 mm 6 mps 728 mmHg 77%
    15:00 -3°C° 0 mm 6 mps 729 mmHg 76%
    16:00 -4°C° 0 mm 6 mps 729 mmHg 74%
    17:00 -4°C° 0 mm 6 mps 729 mmHg 75%
    18:00 -6°C° 0 mm 7 mps 729 mmHg 75%
    19:00 -6°C° 0 mm 7 mps 729 mmHg 76%
    20:00 -6°C° 0 mm 7 mps 729 mmHg 75%
    21:00 -7°C° 0 mm 8 mps 729 mmHg 75%
    22:00 -7°C° 0 mm 8 mps 730 mmHg 74%
    23:00 -7°C° 0 mm 8 mps 730 mmHg 74%

    Day after tomorrow, 25 January, Friday

    Time Temperature Precipitation Wind Pressure Humidity
    00:00 -7°C° 0 mm 8 mps 729 mmHg 75%
    01:00 -8°C° 0 mm 9 mps 729 mmHg 75%
    02:00 -8°C° 0 mm 9 mps 729 mmHg 75%
    03:00 -8°C° 0 mm 9 mps 729 mmHg 75%
    04:00 -8°C° 0 mm 9 mps 729 mmHg 76%
    05:00 -8°C° 0 mm 9 mps 729 mmHg 76%
    06:00 -8°C° 0 mm 10 mps 730 mmHg 76%
    07:00 -8°C° 0 mm 10 mps 730 mmHg 76%
    08:00 -8°C° 0 mm 10 mps 730 mmHg 76%
    09:00 -8°C° 0 mm 9 mps 730 mmHg 75%
    10:00 -6°C° 0 mm 9 mps 730 mmHg 74%
    11:00 -7°C° 0.2 mm 10 mps 731 mmHg 75%
    12:00 -7°C° 0.2 mm 10 mps 731 mmHg 76%
    13:00 -7°C° 0.2 mm 10 mps 731 mmHg 76%
    14:00 -7°C° 0 mm 10 mps 731 mmHg 77%
    15:00 -7°C° 0 mm 10 mps 731 mmHg 77%
    16:00 -7°C° 0 mm 10 mps 731 mmHg 77%
    17:00 -7°C° 0 mm 10 mps 731 mmHg 77%
    18:00 -7°C° 0 mm 10 mps 732 mmHg 76%
    19:00 -8°C° 0 mm 11 mps 732 mmHg 76%
    20:00 -8°C° 0.1 mm 11 mps 732 mmHg 76%
    21:00 -8°C° 0.1 mm 11 mps 733 mmHg 76%
    22:00 -8°C° 0.1 mm 11 mps 733 mmHg 76%
    23:00 -8°C° 0.1 mm 11 mps 733 mmHg 76%

    26 January, Saturday

    Time Temperature Precipitation Wind Pressure Humidity
    00:00 -8°C° 0.1 mm 11 mps 733 mmHg 76%
    01:00 -8°C° 0.1 mm 11 mps 733 mmHg 77%
    02:00 -9°C° 0.1 mm 11 mps 733 mmHg 76%
    03:00 -9°C° 0.1 mm 11 mps 733 mmHg 75%
    04:00 -9°C° 0.1 mm 11 mps 733 mmHg 74%
    05:00 -9°C° 0 mm 11 mps 734 mmHg 74%
    06:00 -9°C° 0 mm 11 mps 734 mmHg 73%
    07:00 -9°C° 0 mm 11 mps 734 mmHg 73%
    08:00 -9°C° 0 mm 11 mps 734 mmHg 72%
    09:00 -8°C° 0 mm 11 mps 734 mmHg 72%
    10:00 -8°C° 0 mm 11 mps 735 mmHg 72%
    11:00 -7°C° 0 mm 10 mps 734 mmHg 70%
    12:00 -6°C° 0 mm 9 mps 734 mmHg 68%
    13:00 -5°C° 0 mm 9 mps 734 mmHg 66%
    14:00 -6°C° 0 mm 8 mps 733 mmHg 67%
    15:00 -6°C° 0 mm 8 mps 733 mmHg 67%
    16:00 -6°C° 0 mm 7 mps 733 mmHg 67%
    17:00 -5°C° 0 mm 6 mps 733 mmHg 68%
    18:00 -6°C° 0 mm 5 mps 733 mmHg 70%
    19:00 -5°C° 0 mm 4 mps 733 mmHg 71%
    20:00 -7°C° 0 mm 4 mps 732 mmHg 72%
    21:00 -6°C° 0 mm 3 mps 732 mmHg 74%
    22:00 -5°C° 0 mm 2 mps 732 mmHg 75%
    23:00 -5°C° 0 mm 2 mps 732 mmHg 75%

    27 January, Sunday

    Time Temperature Precipitation Wind Pressure Humidity
    00:00 -5°C° 0 mm 2 mps 731 mmHg 75%
    01:00 -4°C° 0 mm 1 mps 731 mmHg 75%
    02:00 -4°C° 0 mm 1 mps 731 mmHg 74%
    03:00 -4°C° 0 mm 1 mps 730 mmHg 73%
    04:00 -4°C° 0 mm 1 mps 730 mmHg 72%
    05:00 -4°C° 0 mm 1 mps 730 mmHg 72%
    06:00 -5°C° 0 mm 0 mps 730 mmHg 72%
    07:00 -5°C° 0 mm 0 mps 730 mmHg 71%
    08:00 -4°C° 0 mm 0 mps 730 mmHg 69%
    09:00 -3°C° 0 mm 0 mps 730 mmHg 66%
    10:00 -1°C° 0 mm 1 mps 730 mmHg 63%
    11:00 0°C° 0 mm 1 mps 730 mmHg 62%
    12:00 0°C° 0 mm 1 mps 730 mmHg 61%
    13:00 +1°C° 0 mm 1 mps 730 mmHg 61%
    14:00 +1°C° 0.1 mm 1 mps 730 mmHg 67%
    15:00 0°C° 0.1 mm 1 mps 730 mmHg 72%
    16:00 0°C° 0.1 mm 1 mps 730 mmHg 78%
    17:00 0°C° 0.1 mm 1 mps 730 mmHg 82%
    18:00 -1°C° 0.1 mm 1 mps 730 mmHg 86%
    19:00 -1°C° 0.1 mm 1 mps 731 mmHg 90%
    20:00 -1°C° 0.1 mm 1 mps 731 mmHg 92%
    21:00 -1°C° 0.1 mm 1 mps 731 mmHg 93%
    22:00 -1°C° 0.1 mm 1 mps 731 mmHg 95%
    23:00 -1°C° 0.1 mm 1 mps 732 mmHg 95%

    28 January, Monday

    Time Temperature Precipitation Wind Pressure Humidity
    00:00 -1°C° 0.1 mm 1 mps 732 mmHg 95%
    01:00 -3°C° 0.1 mm 2 mps 732 mmHg 95%
    02:00 -3°C° 0 mm 2 mps 732 mmHg 95%
    03:00 -3°C° 0 mm 2 mps 732 mmHg 95%
    04:00 -3°C° 0 mm 2 mps 732 mmHg 95%
    05:00 -3°C° 0 mm 2 mps 732 mmHg 95%
    06:00 -3°C° 0 mm 2 mps 732 mmHg 95%
    07:00 -3°C° 0 mm 2 mps 732 mmHg 94%
    08:00 -2°C° 0 mm 2 mps 732 mmHg 94%
    09:00 -2°C° 0 mm 3 mps 733 mmHg 93%
    10:00 -2°C° 0 mm 3 mps 733 mmHg 92%
    11:00 -2°C° 0 mm 4 mps 733 mmHg 91%
    12:00 -2°C° 0 mm 4 mps 733 mmHg 91%
    13:00 -1°C° 0 mm 5 mps 733 mmHg 90%
    14:00 -1°C° 0 mm 5 mps 733 mmHg 91%
    15:00 -2°C° 0 mm 4 mps 733 mmHg 93%
    16:00 -2°C° 0 mm 4 mps 734 mmHg 94%
    17:00 -2°C° 0 mm 4 mps 734 mmHg 94%
    18:00 -2°C° 0 mm 4 mps 734 mmHg 95%
    19:00 -1°C° 0 mm 3 mps 735 mmHg 95%
    20:00 -1°C° 0.1 mm 3 mps 735 mmHg 95%
    21:00 -1°C° 0.1 mm 3 mps 736 mmHg 95%
    22:00 -1°C° 0.1 mm 3 mps 736 mmHg 95%
    23:00 -1°C° 0.3 mm 3 mps 736 mmHg 96%
    Show more